Regional Weather Roundup
Issued by NWS Goodland, KS

Home | Current Version | Previous Version | Text Only | Print | Product List | Glossary On
Versions: 1 2 3 4 5 6 7 8 9 10 11 12 13 14 15 16 17 18 19 20 21 22 23 24 25 26 27 28 29 30 31 32 33 34 35 36 37 38 39 40 41 42 43 44 45 46 47 48 49 50
201
ASUS43 KGLD 080208
RWRGLD

GOODLAND FORECAST AREA HOURLY WEATHER ROUNDUP
NATIONAL WEATHER SERVICE GOODLAND KS
700 PM MST SUN FEB 07 2016

...OFFICIAL OBSERVATIONS...

CITY           SKY/WX    TMP DP  RH WIND       PRES   REMARKS
GOODLAND KS    CLOUDY    31  16  54 NW22G28   30.30R WCI  18
HILL CITY KS   CLEAR     34  21  59 W15G24    30.23R
IMPERIAL NEB   CLEAR     30  15  53 NW21G31   30.28R WCI  17
MCCOOK NEB     CLEAR     32  20  61 NW20      30.23R
AKRON CO       CLOUDY    27  17  66 NW14      30.33R WCI  16
BURLINGTON CO  CLOUDY    30  16  56 N20       30.32R WCI  17
LIMON CO       CLOUDY    15  10  80 NW7       30.35R
$$

...UNOFFICIAL OBSERVATIONS...

CITY           SKY/WX    TMP DP  RH WIND       PRES   REMARKS
COLBY KS       CLEAR     30  21  69 NW22G29   30.27S WCI  17
GOVE KS          N/A     33  32  96 MISG        N/A
LENORA KS        N/A     32  32 100 MISG        N/A
NORTON KS      CLEAR     34  18  51 NW22G28   30.19S
KIT CARSON CO    N/A     25  17  70 MISG        N/A
YUMA CO          N/A     29  20  67 NW14        N/A  WCI  18
$$




USA.gov is the U.S. government's official web portal to all federal, state and local government web resources and services.